KA6YAK Weather Reports


Display with metric or nautical units.
time (UTC)temp
F
wind
direction
speed
MPH
gust
MPH
rain 1hr
in
rain 24hr
in
rain mn
in
humidity
%
barometer
mb
20260503020645 70 350 0.0 2.0 0.00 0.00 0.00 40 1014.4
20260503015207 69 346 1.0 2.0 0.00 0.00 0.00 38 1014.1
20260503014205 69 20 1.0 3.0 0.00 0.00 0.00 37 1014.1
20260503013203 71 24 2.0 4.0 0.00 0.00 0.00 35 1014.4
20260503012201 73 342 2.0 3.0 0.00 0.00 0.00 34 1014.4
20260503011201 75 330 2.0 4.0 0.00 0.00 0.00 33 1014.7
20260503010157 75 29 1.0 2.0 0.00 0.00 0.00 30 1014.7
20260503005157 74 22 1.0 6.0 0.00 0.00 0.00 31 1014.4
20260503004157 75 41 2.0 4.0 0.00 0.00 0.00 29 1014.7
20260503003153 75 18 3.0 7.0 0.00 0.00 0.00 28 1014.7
20260503002152 75 24 5.0 7.0 0.00 0.00 0.00 31 1014.7
20260503001644 76 34 5.0 8.0 0.00 0.00 0.00 31 1014.7
20260503000149 76 16 6.0 8.0 0.00 0.00 0.00 32 1014.7
20260502235149 74 22 5.0 9.0 0.00 0.00 0.00 34 1014.7
20260502234148 70 7 4.0 9.0 0.00 0.00 0.00 37 1015.2
20260502233145 69 3 4.0 11.0 0.00 0.00 0.00 39 1015.2
20260502232629 69 39 4.0 8.0 0.00 0.00 0.00 39 1015.2
20260502231144 70 8 5.0 9.0 0.00 0.00 0.00 40 1015.5
20260502230141 70 1 5.0 10.0 0.00 0.00 0.00 39 1015.5
20260502225620 69 357 6.0 10.0 0.00 0.00 0.00 38 1015.5
20260502224140 71 342 7.0 9.0 0.00 0.00 0.00 37 1016.0
20260502223136 72 347 7.0 11.0 0.00 0.00 0.00 36 1015.5
20260502222135 73 356 4.0 7.0 0.00 0.00 0.00 37 1016.0
20260502221618 73 289 2.0 7.0 0.00 0.00 0.00 36 1015.5
20260502220132 72 300 3.0 6.0 0.00 0.00 0.00 36 1016.0
20260502215131 72 333 3.0 6.0 0.00 0.00 0.00 37 1016.0
20260502215044 72 347 4.0 6.0 0.00 0.00 0.00 35 1016.3
20260502213129 72 351 4.0 9.0 0.00 0.00 0.00 34 1016.0
20260502212126 75 27 4.0 4.0 0.00 0.00 0.00 35 1016.3
20260502211126 75 48 2.0 4.0 0.00 0.00 0.00 35 1016.7
20260502210124 74 268 1.0 7.0 0.00 0.00 0.00 35 1016.7
20260502205122 74 280 5.0 7.0 0.00 0.00 0.00 36 1016.7
20260502204122 76 17 3.0 9.0 0.00 0.00 0.00 35 1016.7
20260502203119 74 342 4.0 7.0 0.00 0.00 0.00 38 1017.1
20260502202118 73 355 4.0 7.0 0.00 0.00 0.00 42 1016.7
20260502201117 71 2 3.0 7.0 0.00 0.00 0.00 37 1017.1
20260502200115 71 332 3.0 9.0 0.00 0.00 0.00 43 1017.1
20260502195114 71 339 4.0 9.0 0.00 0.00 0.00 43 1017.1
20260502194113 69 352 5.0 8.0 0.00 0.00 0.00 45 1017.4
20260502193111 68 282 6.0 8.0 0.00 0.00 0.00 45 1017.4
20260502192551 68 349 6.0 8.0 0.00 0.00 0.00 45 1017.4
20260502191546 67 338 4.0 8.0 0.00 0.00 0.00 46 1017.8
20260502190106 65 333 3.0 7.0 0.00 0.00 0.00 47 1017.4
20260502185105 66 338 4.0 7.0 0.00 0.00 0.00 47 1017.4
20260502184105 66 357 6.0 10.0 0.00 0.00 0.00 48 1018.2
20260502183544 66 333 1.0 8.0 0.00 0.00 0.00 47 1018.2
20260502182546 65 14 4.0 8.0 0.00 0.00 0.00 48 1017.8
20260502181101 64 286 5.0 8.0 0.00 0.00 0.00 48 1017.8
20260502164048 60 9 3.0 6.0 0.00 0.00 0.00 52 1018.6
20260502163045 60 307 4.0 6.0 0.00 0.00 0.00 53 1019.0
20260502162043 58 350 3.0 7.0 0.00 0.00 0.00 53 1019.0
20260502161043 60 323 4.0 7.0 0.00 0.00 0.00 52 1019.0
20260502151035 55 317 1.0 4.0 0.00 0.00 0.00 54 1019.0
20260502123011 37 334 1.0 2.0 0.00 0.00 0.00 72 1019.0
20260502122445 36 338 0.0 0.0 0.00 0.00 0.00 71 1019.0
20260502121009 37 232 0.0 3.0 0.00 0.00 0.00 69 1018.6
20260502115005 40 110 4.0 6.0 0.00 0.00 0.00 70 1019.0
20260502114638 39 72 3.0 4.0 0.00 0.00 0.00 71 1019.0
20260502113635 38 81 1.0 3.0 0.00 0.00 0.00 71 1019.0
20260502112127 38 81 2.0 3.0 0.00 0.00 0.00 71 1019.0
20260502111627 38 105 2.0 3.0 0.00 0.00 0.00 70 1019.0
20260502110121 39 124 2.0 3.0 0.00 0.00 0.00 69 1019.0
20260502105118 39 143 1.0 2.0 0.00 0.00 0.00 68 1019.0
20260502104116 40 233 1.0 3.0 0.00 0.00 0.00 68 1018.6
20260502103111 40 198 2.0 2.0 0.00 0.00 0.00 69 1018.6
20260502102610 39 124 0.0 1.0 0.00 0.00 0.00 70 1018.6
20260502101107 38 257 1.0 2.0 0.00 0.00 0.00 70 1018.6
20260502100605 40 260 1.0 3.0 0.00 0.00 0.00 69 1018.6
20260502091049 39 112 5.0 8.0 0.00 0.00 0.00 69 1018.2
20260502071011 45 134 6.0 13.0 0.00 0.00 0.00 62 1017.8
20260502070009 44 128 5.0 11.0 0.00 0.00 0.00 63 1017.8
20260502070005 43 124 6.0 9.0 0.00 0.00 0.00 64 1018.2
20260502064001 44 95 7.0 10.0 0.00 0.00 0.00 61 1017.8
20260502062955 45 92 9.0 11.0 0.00 0.00 0.00 62 1017.8
20260502061954 44 103 7.0 10.0 0.00 0.00 0.00 64 1017.8
20260502060951 45 105 6.0 10.0 0.00 0.00 0.00 63 1017.8
20260502060447 45 101 7.0 9.0 0.00 0.00 0.00 62 1017.8
20260502054945 45 89 6.0 8.0 0.00 0.00 0.00 61 1017.8
20260502053944 45 104 5.0 7.0 0.00 0.00 0.00 61 1017.4
20260502052939 47 107 3.0 6.0 0.00 0.00 0.00 56 1017.8
20260502051935 48 117 3.0 10.0 0.00 0.00 0.00 55 1017.8
20260502050935 48 136 7.0 17.0 0.00 0.00 0.00 54 1017.8
20260502045929 48 107 10.0 14.0 0.00 0.00 0.00 55 1017.4
20260502044926 47 80 9.0 13.0 0.00 0.00 0.00 58 1017.4
20260502043927 47 127 9.0 14.0 0.00 0.00 0.00 58 1017.4
20260502042922 47 46 5.0 14.0 0.00 0.00 0.00 57 1017.4
20260502042418 48 51 5.0 9.0 0.00 0.00 0.00 55 1017.1
20260502040917 50 88 5.0 9.0 0.00 0.00 0.00 53 1017.1
20260502035911 52 51 9.0 16.0 0.00 0.00 0.00 49 1017.4
20260502034909 52 117 11.0 16.0 0.00 0.00 0.00 49 1017.1
20260502033907 51 189 8.0 15.0 0.00 0.00 0.00 51 1017.1
20260502032903 52 81 11.0 15.0 0.00 0.00 0.00 50 1017.1
20260502031859 53 99 10.0 15.0 0.00 0.00 0.00 48 1017.1
20260502030859 52 98 8.0 10.0 0.00 0.00 0.00 49 1016.7
20260502025852 55 104 4.0 9.0 0.00 0.00 0.00 45 1016.7
20260502024849 56 115 5.0 6.0 0.00 0.00 0.00 44 1016.7
20260502023849 58 91 1.0 3.0 0.00 0.00 0.00 39 1016.3
20260502022844 61 109 2.0 3.0 0.00 0.00 0.00 37 1016.7
20260502021843 63 159 1.0 3.0 0.00 0.00 0.00 33 1016.3
20260502020842 67 157 1.0 2.0 0.00 0.00 0.00 30 1016.7